#timestamp,LO_Frequency,Hit,StdDev 
1585558815.3,286047000.6,N
1585558835.2,286046995.8,N
1585558855.0,286046992.6,N
1585558855.9,286046992.6,N
1585558875.8,286046996.1,N
1585558895.6,286046990.5,N
1585558915.4,286046995.8,N
1585558935.3,286046991.8,N
1585558955.1,286046992.6,N
1585558975.9,286046992.5,N
1585558995.7,286046988.5,N
1585559015.5,286046982.4,Y
1585559035.4,286046982.4,P
1585559055.2,286046984.6,N
1585559075.1,286046983.2,N
1585559076.0,286046983.2,Y
1585559095.8,286047002.9,P
1585559115.6,286046999.7,N
1585559135.5,286046997.8,N
1585559155.3,286046998.0,N
1585559175.1,286046994.6,N
1585559195.9,286046991.4,N
1585559215.7,286046985.5,N
1585559235.6,286046985.8,N
1585559255.4,286046986.3,N
1585559275.2,286046992.2,N
1585559295.1,286046990.8,N
1585559296.0,286046990.8,N
1585559315.8,286046985.4,N
1585559335.7,286046984.3,N
1585559355.5,286046984.0,N
1585559375.3,286046980.0,Y
1585559395.2,286046985.3,P
1585559415.0,286046980.2,P
1585559415.9,286046980.2,P
1585559435.7,286046974.6,Y
1585559455.6,286046989.7,P
1585559475.4,286046991.8,N
1585559495.3,286046990.8,N
1585559515.1,286046985.4,Y
1585559535.8,286046997.8,P
1585559555.7,286046997.8,N
1585559575.5,286046993.4,N
1585559595.3,286046990.3,N
1585559615.2,286046995.0,N
1585559635.0,286046996.3,N
1585559635.9,286046996.3,N
1585559655.8,286046990.7,Y
1585559675.6,286046995.6,P
1585559695.4,286047000.4,N
1585559715.3,286046996.5,N
1585559735.1,286046999.2,N
1585559755.9,286046995.2,N
1585559775.8,286046992.3,Y
1585559795.6,286046995.4,P
1585559815.4,286047000.3,N
1585559835.3,286046997.6,N
1585559855.1,286046992.5,Y
1585559875.9,286046994.7,P
1585559895.7,286046992.1,P
1585559915.6,286046993.5,N
1585559935.4,286046990.4,Y
1585559955.2,286046995.8,P
1585559975.1,286046995.1,P
1585559976.0,286046995.1,P
1585559995.8,286046994.7,Y
1585560015.6,286046998.3,P
1585560035.5,286046996.9,N
1585560055.3,286046997.6,N
1585560075.2,286046997.3,N
1585560095.9,286047000.6,N
1585560115.7,286046999.0,N
1585560135.6,286046996.8,N
1585560155.4,286047001.0,N
1585560175.2,286046993.6,Y
1585560195.1,286046993.6,P
1585560196.0,286046993.6,N
1585560215.8,286046994.1,N
1585560235.7,286046991.6,Y
1585560255.5,286046991.0,P
1585560275.3,286046986.9,P
1585560295.2,286046984.5,P
1585560315.0,286046982.5,Y
1585560315.9,286046982.5,P
1585560335.7,286046994.1,N
1585560355.6,286046990.1,N
1585560375.4,286046987.0,Y
1585560395.3,286046994.1,P
1585560415.1,286046989.5,P
1585560435.8,286046984.2,P
1585560455.7,286046983.4,Y
1585560475.5,286046988.8,P
1585560495.4,286046989.9,P
1585560515.2,286046985.1,P
1585560535.0,286046981.4,Y
1585560535.9,286046981.4,P
1585560555.8,286046990.2,N
1585560575.6,286046990.6,N
1585560595.5,286046990.5,N
1585560615.3,286046982.9,Y
1585560635.1,286046991.5,P
1585560655.9,286046989.6,P
1585560675.7,286046989.4,P
1585560695.5,286046989.9,Y
1585560715.4,286046993.8,P
1585560735.2,286046994.0,N
1585560755.1,286046996.2,N
1585560775.4,286046995.5,N
1585560795.2,286046996.2,N
1585560815.1,286046994.7,N
1585560816.0,286046994.7,N
1585560835.8,286046987.3,Y
1585560855.6,286046991.1,P
1585560875.5,286046992.6,P
1585560895.3,286046992.9,P
1585560915.2,286046992.7,Y
1585560935.9,286046999.9,P
1585560955.7,286046999.4,N
1585560975.6,286047003.1,N
1585560995.4,286047000.5,N
1585561015.2,286046994.6,N
1585561035.1,286046990.6,N
1585561036.0,286046990.6,N
1585561055.8,286046990.3,N
1585561075.7,286046989.9,N
1585561095.5,286046984.7,Y
1585561115.3,286046987.1,P
1585561135.2,286046988.4,N
1585561155.0,286046987.8,P
1585561155.9,286046987.8,Y
1585561175.7,286046998.0,P
1585561195.6,286046998.0,N
1585561215.4,286046994.1,N
1585561235.3,286046991.1,N
1585561255.1,286046984.7,Y
1585561275.8,286046994.8,P
1585561295.7,286046999.1,N
1585561315.5,286046997.3,N
1585561335.4,286047001.7,N
1585561355.2,286047000.4,N
1585561375.0,286047000.8,N
1585561375.9,286047000.8,N
1585561395.8,286046997.3,N
1585561415.6,286046997.2,N
1585561435.4,286047001.2,N
1585561455.3,286046998.5,N
1585561475.1,286046999.8,N
1585561495.9,286047002.5,N
1585561515.7,286047000.7,N
1585561535.5,286046998.1,N
1585561555.4,286046998.1,N
1585561575.2,286046997.8,N
1585561595.0,286047002.1,N
1585561595.9,286047002.1,N
1585561615.8,286047002.7,N
1585561635.6,286047000.7,N
1585561655.4,286046997.4,N
1585561675.3,286046993.4,N
1585561695.1,286046995.6,N
1585561715.9,286046997.7,N
1585561735.7,286046996.6,N
1585561755.5,286046998.4,N
1585561775.4,286047004.1,N
1585561795.2,286047002.3,N
1585561815.0,286046998.4,N
1585561815.9,286046998.4,N
1585561835.8,286046993.8,N
1585561855.6,286046993.7,N
1585561875.5,286046995.6,N
1585561895.3,286046993.9,N
1585561915.1,286047000.5,N
1585561935.9,286047000.3,N
1585561955.7,286047003.5,N
1585561975.5,286047003.7,N
1585561995.4,286047008.5,N
1585562015.2,286047013.9,Y
1585562035.1,286047006.6,P
1585562036.0,286047006.6,N
1585562055.8,286047001.9,N
1585562075.6,286046998.7,N
1585562095.5,286047002.8,N
1585562115.3,286046998.4,N
1585562135.1,286046997.5,N
1585562155.9,286046992.8,N
1585562175.7,286046989.4,N
1585562195.6,286046990.0,N
1585562215.4,286046994.6,N
1585562235.2,286046992.5,N
1585562255.1,286046985.7,N
1585562256.0,286046985.7,N
1585562275.8,286046984.4,N
1585562295.6,286046987.7,N
1585562315.5,286046987.7,N
1585562335.3,286046984.2,N
1585562355.2,286046980.8,N
1585562375.9,286046978.6,N
1585562395.7,286046976.6,N
